Location: Nicosia
(35.1670°N, 33.3670°E)
Time: 01:30:38
(UTC+02:00)

BlueWalker 3 - Pass Details

Date: 07 December 2022
Orbit: 499 x 517 km, 53.2° (Epoch: 31 January)

Event Time Altitude Azimuth Distance (km) Brightness Sun altitude
Rises 18:14:01 0° 326° (NNW) 2,619 5.8 -19.9°
Reaches altitude 10° 18:16:48 10° 347° (NNW) 1,726 4.6 -20.4°
Enters shadow 18:17:29 13° 355° (N) 1,558 4.3 -20.5°
